Winter Haven, FL

11:15 AM EST on February 06, 2016 (GMT -0500)
Winter Haven's-Gilbert

Weather History for KGIF - September, 2012

Change the Weather History Date:

Thursday, September 20, 2012

  Actual Average Record
Temperature  
Mean Temperature 80 °F -  
Max Temperature 88 °F 90 °F 94 °F (1949)
Min Temperature 73 °F 71 °F 63 °F (1981)
Cooling Degree Days 15    
Growing Degree Days 30 (Base 50)    
Moisture  
Dew Point 71 °F    
Average Humidity 78    
Maximum Humidity 91    
Minimum Humidity 57    
Precipitation  
Precipitation 0.00 in - - ()
Sea Level Pressure  
Sea Level Pressure 30.03 in    
Wind  
Wind Speed 9 mph (SE)    
Max Wind Speed 15 mph    
Max Gust Speed 17 mph    
Visibility 10 miles    
Events Thunderstorm    
Averages and records for this station are not official NWS values.
T = Trace of Precipitation, MM = Missing Value Source: NWS Daily Summary

Daily Weather History Graph

Daily Weather History Graph

Search for Another Location

Airport or City:

Trip Planner

Search our weather history database for the weather conditions in past years. The results will help you decide how hot, cold, wet, or windy it might be!

Date:

Astronomy

Sep. 20, 2012 Rise Set
Actual Time 7:14 AM EDT 7:25 PM EDT
Civil Twilight 6:51 AM EDT 7:48 PM EDT
Nautical Twilight 6:23 AM EDT 8:16 PM EDT
Astronomical Twilight 5:56 AM EDT 8:43 PM EDT
Moon 12:02 PM EDT (9/20) 10:55 PM EDT (9/20)
Length of Visible Light 12h 57m
Length of Day
12h 10m
Waxing Crescent, 26% of the Moon is Illuminated
Sep 20
Waxing Crescent
Sep 22
First Quarter
Sep 29
Full
Oct 8
Last Quarter
Oct 15
New

Hourly Weather History & Observations

Time (EDT) Temp. Heat Index Dew Point Humidity Pressure Visibility Wind Dir Wind Speed Gust Speed Precip Events Conditions
12:53 AM 77.0 °F - 73.0 °F 88% 30.04 in 10.0 mi SSE 8.1 mph - N/A   Clear
1:53 AM 75.9 °F - 72.0 °F 87% 30.03 in 10.0 mi SE 12.7 mph - N/A   Clear
2:53 AM 75.0 °F - 71.1 °F 87% 30.02 in 10.0 mi South 11.5 mph - N/A   Clear
3:53 AM 75.0 °F - 71.1 °F 87% 30.01 in 10.0 mi SSE 12.7 mph - N/A   Clear
4:53 AM 73.9 °F - 71.1 °F 91% 30.01 in 10.0 mi South 11.5 mph - N/A   Clear
5:53 AM 73.9 °F - 71.1 °F 91% 30.02 in 10.0 mi SSE 9.2 mph - N/A   Clear
6:53 AM 75.0 °F - 72.0 °F 90% 30.03 in 10.0 mi SSE 9.2 mph - N/A   Clear
7:53 AM 75.0 °F - 72.0 °F 90% 30.02 in 10.0 mi ESE 6.9 mph - N/A   Clear
9:53 AM 78.1 °F - 73.0 °F 84% 30.06 in 10.0 mi SSE 4.6 mph - N/A   Clear
10:53 AM 82.0 °F 87.4 °F 73.0 °F 74% 30.06 in 10.0 mi SE 6.9 mph - N/A   Clear
11:53 AM 84.0 °F 89.6 °F 72.0 °F 67% 30.06 in 10.0 mi SE 10.4 mph - N/A   Partly Cloudy
12:53 PM 84.0 °F 89.6 °F 72.0 °F 67% 30.04 in 10.0 mi Variable 5.8 mph - N/A   Clear
1:53 PM 84.9 °F 90.1 °F 71.1 °F 63% 30.03 in 10.0 mi SE 6.9 mph - N/A   Clear
2:53 PM 84.9 °F 89.4 °F 70.0 °F 61% 30.00 in 10.0 mi SE 3.5 mph - N/A   Clear
3:53 PM 86.0 °F 90.7 °F 70.0 °F 59% 29.98 in 10.0 mi Variable 4.6 mph - N/A   Clear
4:53 PM 86.0 °F 90.1 °F 69.1 °F 57% 29.96 in 10.0 mi Variable 6.9 mph - N/A   Clear
5:53 PM 87.1 °F 92.0 °F 70.0 °F 57% 29.97 in 10.0 mi Variable 6.9 mph - N/A   Clear
6:53 PM 84.0 °F 89.6 °F 72.0 °F 67% 29.98 in 10.0 mi East 9.2 mph - N/A   Clear
7:53 PM 81.0 °F 85.8 °F 73.0 °F 77% 30.00 in 10.0 mi Variable 5.8 mph - N/A   Clear
8:53 PM 81.0 °F 85.8 °F 73.0 °F 77% 30.03 in 10.0 mi SE 15.0 mph - N/A   Mostly Cloudy
9:42 PM 79.0 °F - 71.1 °F 77% 30.04 in 10.0 mi SSE 15.0 mph - N/A Thunderstorm Mostly Cloudy
9:53 PM 79.0 °F - 71.1 °F 77% 30.04 in 10.0 mi SSE 12.7 mph - N/A Thunderstorm Mostly Cloudy
10:03 PM 78.1 °F - 70.0 °F 76% 30.05 in 10.0 mi SSE 11.5 mph - N/A Thunderstorm Thunderstorm
10:18 PM 78.1 °F - 71.1 °F 79% 30.05 in 10.0 mi SSE 10.4 mph - N/A Thunderstorm Overcast
10:40 PM 78.1 °F - 71.1 °F 79% 30.05 in 10.0 mi ESE 6.9 mph - N/A   Mostly Cloudy
10:53 PM 78.1 °F - 71.1 °F 79% 30.04 in 10.0 mi SE 8.1 mph - N/A   Overcast
11:03 PM 77.0 °F - 71.1 °F 82% 30.05 in 10.0 mi ESE 8.1 mph - N/A Thunderstorm Thunderstorm
11:33 PM 75.9 °F - 72.0 °F 87% 30.06 in 10.0 mi ESE 5.8 mph 17.3 mph N/A Thunderstorm Mostly Cloudy
11:41 PM 75.9 °F - 72.0 °F 87% 30.05 in 10.0 mi ESE 5.8 mph - N/A   Scattered Clouds
11:53 PM 75.0 °F - 72.0 °F 90% 30.04 in 10.0 mi SE 5.8 mph - N/A   Partly Cloudy